Retour au catalogue

STARLINK-32769

ActifCommunicationsVLEO
NORAD 62602·PAYLOAD·🇺🇸 United States

Lancé Jan 13, 2025 depuis Cape Canaveral Space Force Station

Loading…

Prochains Passages (prochaines 24 heures)

TLE

FraisSource: CelesTrak SupGP

Époque: Sep 14, 2026, 20:56 UTC

1 62602C 25008R   26257.87270833 -.00010350  00000+0 -37492-3 0  2576
2 62602  43.0001 289.4181 0001650 268.1319 269.5198 15.27580891    18

Suivez STARLINK-32769 en temps réel avec AllMySat

Download on the App Store